| time (UTC) | temp F | wind direction | speed MPH | gust MPH | rain 1hr in | rain 24hr in | rain mn in | humidity % | barometer mb |
| 20260506001546 | 41 | 360 | 0.0 | 4.0 | 0.00 | 0.00 | 0.00 | 100 | 1017.0 |
| 20260506000040 | 41 | 360 | 0.0 | 5.0 | 0.00 | 0.00 | 0.00 | 100 | 1016.8 |
| 20260505234537 | 41 | 360 | 0.0 | 4.0 | 0.00 | 0.00 | 0.00 | 100 | 1017.0 |
| 20260505233044 | 42 | 360 | 0.0 | 3.0 | 0.00 | 0.00 | 0.00 | 100 | 1016.9 |
| 20260505231534 | 42 | 273 | 0.0 | 4.0 | 0.00 | 0.00 | 0.00 | 100 | 1016.9 |
| 20260505230039 | 42 | 360 | 0.0 | 4.0 | 0.00 | 0.00 | 0.00 | 100 | 1017.0 |
| 20260505224534 | 42 | 360 | 0.0 | 4.0 | 0.00 | 0.00 | 0.00 | 100 | 1017.1 |
| 20260505223030 | 42 | 360 | 0.0 | 3.0 | 0.00 | 0.00 | 0.00 | 100 | 1017.0 |
| 20260505221530 | 42 | 267 | 0.0 | 5.0 | 0.00 | 0.00 | 0.00 | 100 | 1017.0 |
| 20260505220029 | 42 | 360 | 0.0 | 6.0 | 0.00 | 0.00 | 0.00 | 100 | 1017.0 |
| 20260505214527 | 42 | 360 | 1.0 | 6.0 | 0.00 | 0.00 | 0.00 | 100 | 1016.9 |
| 20260505213029 | 42 | 360 | 1.0 | 5.0 | 0.00 | 0.00 | 0.00 | 100 | 1017.0 |
| 20260505211526 | 42 | 63 | 2.0 | 6.0 | 0.00 | 0.00 | 0.00 | 100 | 1016.9 |
| 20260505210026 | 43 | 360 | 2.0 | 5.0 | 0.00 | 0.00 | 0.00 | 100 | 1016.9 |
| 20260505204524 | 43 | 252 | 1.0 | 4.0 | 0.00 | 0.00 | 0.00 | 100 | 1016.8 |
| 20260505203030 | 43 | 284 | 2.0 | 7.0 | 0.00 | 0.00 | 0.00 | 100 | 1016.9 |
| 20260505201521 | 43 | 360 | 1.0 | 9.0 | 0.00 | 0.00 | 0.00 | 100 | 1016.7 |
| 20260505200021 | 43 | 3 | 2.0 | 6.0 | 0.00 | 0.00 | 0.00 | 100 | 1016.6 |
| 20260505194519 | 44 | 360 | 2.0 | 6.0 | 0.00 | 0.00 | 0.00 | 100 | 1016.5 |
| 20260505193019 | 44 | 333 | 0.0 | 7.0 | 0.00 | 0.00 | 0.00 | 100 | 1016.3 |
| 20260505191518 | 45 | 360 | 0.0 | 5.0 | 0.00 | 0.00 | 0.00 | 100 | 1016.2 |
| 20260505190026 | 45 | 295 | 1.0 | 5.0 | 0.00 | 0.00 | 0.00 | 100 | 1016.0 |
| 20260505184517 | 45 | 360 | 1.0 | 3.0 | 0.00 | 0.00 | 0.00 | 100 | 1016.0 |
| 20260505183016 | 46 | 360 | 0.0 | 3.0 | 0.00 | 0.00 | 0.00 | 100 | 1015.9 |
| 20260505181516 | 47 | 300 | 0.0 | 4.0 | 0.00 | 0.00 | 0.00 | 100 | 1015.8 |
| 20260505180016 | 47 | 252 | 1.0 | 6.0 | 0.00 | 0.00 | 0.00 | 100 | 1015.9 |
| 20260505174515 | 47 | 360 | 0.0 | 4.0 | 0.00 | 0.00 | 0.00 | 100 | 1015.7 |
| 20260505173016 | 48 | 299 | 1.0 | 9.0 | 0.00 | 0.00 | 0.00 | 100 | 1015.8 |
| 20260505171514 | 48 | 17 | 0.0 | 5.0 | 0.00 | 0.00 | 0.00 | 100 | 1015.7 |
| 20260505170018 | 49 | 360 | 1.0 | 5.0 | 0.00 | 0.00 | 0.00 | 100 | 1015.9 |
| 20260505164514 | 49 | 239 | 0.0 | 4.0 | 0.00 | 0.00 | 0.00 | 100 | 1015.9 |
| 20260505163012 | 50 | 360 | 0.0 | 3.0 | 0.00 | 0.00 | 0.00 | 100 | 1015.8 |
| 20260505161511 | 50 | 360 | 0.0 | 5.0 | 0.00 | 0.00 | 0.00 | 100 | 1015.6 |
| 20260505153009 | 52 | 129 | 0.0 | 3.0 | 0.00 | 0.00 | 0.00 | 100 | 1015.6 |
| 20260505151508 | 53 | 360 | 0.0 | 11.0 | 0.00 | 0.00 | 0.00 | 100 | 1015.6 |
| 20260505124552 | 52 | 73 | 0.0 | 3.0 | 0.00 | 0.00 | 0.00 | 100 | 1015.5 |
| 20260505123051 | 50 | 360 | 0.0 | 4.0 | 0.00 | 0.00 | 0.00 | 100 | 1015.7 |
| 20260505121550 | 50 | 328 | 0.0 | 3.0 | 0.00 | 0.00 | 0.00 | 100 | 1015.7 |
| 20260505120108 | 50 | 360 | 1.0 | 4.0 | 0.00 | 0.00 | 0.00 | 100 | 1015.8 |
| 20260505114548 | 51 | 360 | 0.0 | 3.0 | 0.00 | 0.00 | 0.00 | 100 | 1015.8 |
| 20260505113048 | 51 | 1 | 0.0 | 4.0 | 0.00 | 0.00 | 0.00 | 100 | 1015.8 |
| 20260505111547 | 51 | 335 | 0.0 | 3.0 | 0.00 | 0.00 | 0.00 | 100 | 1015.8 |
| 20260505101543 | 50 | 360 | 0.0 | 4.0 | 0.00 | 0.00 | 0.00 | 100 | 1015.8 |
| 20260505100043 | 51 | 325 | 0.0 | 3.0 | 0.00 | 0.00 | 0.00 | 100 | 1015.9 |
| 20260505094542 | 51 | 356 | 1.0 | 3.0 | 0.00 | 0.00 | 0.00 | 100 | 1015.9 |
| 20260505093043 | 50 | 70 | 0.0 | 5.0 | 0.00 | 0.00 | 0.00 | 100 | 1016.0 |
| 20260505091540 | 50 | 13 | 0.0 | 3.0 | 0.00 | 0.00 | 0.00 | 100 | 1015.9 |
| 20260505090044 | 49 | 311 | 0.0 | 4.0 | 0.00 | 0.00 | 0.00 | 100 | 1016.0 |
| 20260505084535 | 49 | 111 | 1.0 | 4.0 | 0.00 | 0.00 | 0.00 | 100 | 1016.0 |
| 20260505083032 | 48 | 6 | 1.0 | 4.0 | 0.00 | 0.00 | 0.00 | 100 | 1016.1 |
| 20260505081536 | 47 | 308 | 0.0 | 4.0 | 0.00 | 0.00 | 0.00 | 100 | 1016.1 |
| 20260505080036 | 46 | 273 | 0.0 | 2.0 | 0.00 | 0.00 | 0.00 | 100 | 1016.1 |
| 20260505074523 | 46 | 248 | 0.0 | 3.0 | 0.00 | 0.00 | 0.00 | 100 | 1016.2 |
| 20260505073030 | 44 | 262 | 0.0 | 4.0 | 0.00 | 0.00 | 0.00 | 100 | 1016.1 |
| 20260505071520 | 44 | 300 | 0.0 | 3.0 | 0.00 | 0.00 | 0.00 | 100 | 1016.1 |
| 20260505070021 | 43 | 346 | 0.0 | 3.0 | 0.00 | 0.00 | 0.00 | 100 | 1016.2 |
| 20260505064533 | 41 | 169 | 0.0 | 2.0 | 0.00 | 0.00 | 0.00 | 100 | 1016.3 |
| 20260505063017 | 39 | 156 | 0.0 | 1.0 | 0.00 | 0.00 | 0.00 | 100 | 1016.3 |
| 20260505061529 | 37 | 199 | 0.0 | 0.0 | 0.00 | 0.00 | 0.00 | 100 | 1016.3 |
| 20260505060016 | 36 | 124 | 0.0 | 1.0 | 0.00 | 0.00 | 0.00 | 100 | 1016.2 |
| 20260505054515 | 36 | 125 | 0.0 | 0.0 | 0.00 | 0.00 | 0.00 | 100 | 1016.1 |
| 20260505053015 | 36 | 65 | 0.0 | 0.0 | 0.00 | 0.00 | 0.00 | 100 | 1016.1 |
| 20260505051514 | 36 | 24 | 0.0 | 0.0 | 0.00 | 0.00 | 0.00 | 100 | 1016.1 |
| 20260505041512 | 37 | 303 | 0.0 | 0.0 | 0.00 | 0.00 | 0.00 | 100 | 1015.6 |
| 20260505040006 | 38 | 360 | 0.0 | 0.0 | 0.00 | 0.00 | 0.00 | 100 | 1015.6 |
| 20260505034508 | 38 | 360 | 0.0 | 0.0 | 0.00 | 0.00 | 0.00 | 100 | 1015.6 |
| 20260505033003 | 38 | 303 | 0.0 | 0.0 | 0.00 | 0.00 | 0.00 | 100 | 1015.5 |
| 20260505031505 | 38 | 360 | 0.0 | 0.0 | 0.00 | 0.00 | 0.00 | 100 | 1015.5 |
| 20260505030100 | 39 | 360 | 0.0 | 0.0 | 0.00 | 0.00 | 0.00 | 100 | 1015.6 |
| 20260505024600 | 39 | 360 | 0.0 | 0.0 | 0.00 | 0.00 | 0.00 | 100 | 1015.6 |
| 20260505023119 | 39 | 360 | 0.0 | 2.0 | 0.00 | 0.00 | 0.00 | 100 | 1015.6 |
| 20260505021556 | 39 | 360 | 0.0 | 0.0 | 0.00 | 0.00 | 0.00 | 100 | 1015.6 |
| 20260505020054 | 40 | 360 | 0.0 | 1.0 | 0.00 | 0.00 | 0.00 | 100 | 1015.7 |
| 20260505014601 | 40 | 360 | 0.0 | 0.0 | 0.00 | 0.00 | 0.00 | 100 | 1015.7 |
| 20260505013106 | 40 | 360 | 0.0 | 0.0 | 0.00 | 0.00 | 0.00 | 100 | 1015.9 |
| 20260505011551 | 40 | 360 | 0.0 | 0.0 | 0.00 | 0.00 | 0.00 | 100 | 1016.0 |
| 20260505010047 | 40 | 360 | 0.0 | 0.0 | 0.00 | 0.00 | 0.00 | 100 | 1016.1 |
| 20260505004552 | 41 | 360 | 0.0 | 0.0 | 0.00 | 0.00 | 0.00 | 100 | 1016.1 |
| 20260505003043 | 41 | 303 | 0.0 | 0.0 | 0.00 | 0.00 | 0.00 | 100 | 1016.3 |